#timestamp,LO_Frequency,Hit,StdDev 
1524204015.3,286047000.4,N
1524204035.2,286047000.9,N
1524204055.9,286047000.5,N
1524204075.7,286047002.7,N
1524204095.6,286047002.1,N
1524204115.4,286047002.0,N
1524204135.2,286047001.0,N
1524204155.1,286047000.3,N
1524204156.0,286047000.3,N
1524204175.8,286046999.8,N
1524204195.7,286046999.7,N
1524204215.5,286047001.1,N
1524204235.3,286046996.5,N
1524204285.2,286046999.4,E
1524204295.1,286046998.8,N
1524204315.9,286046998.1,P
1524204365.7,286047000.2,E
1524204375.6,286047002.4,N
1524204395.5,286046999.9,P
1524204415.3,286047002.8,N
1524204435.2,286047001.1,N
1524204455.9,286047002.5,N
1524204475.7,286047000.3,N
1524204495.6,286046999.5,N
1524204515.4,286046998.6,N
1524204535.2,286046999.5,N
1524204555.1,286046997.1,N
1524204556.0,286046997.1,N
1524204575.8,286046998.9,N
1524204595.6,286046999.4,N
1524204615.5,286046998.1,N
1524204635.3,286046998.6,N
1524204655.2,286046998.2,N
1524204675.9,286046998.8,N
1524204695.7,286046996.7,N
1524204715.6,286046999.6,N
1524204735.4,286046998.8,N
1524204755.2,286046999.0,N
1524204775.1,286046998.2,N
1524204776.0,286046998.2,N
1524204795.8,286046998.2,N
1524204815.7,286046999.3,N
1524204835.5,286046996.9,N
1524204855.3,286046998.9,N
1524204875.2,286046999.4,N
1524204895.0,286046997.3,N
1524204895.9,286046997.3,N
1524204915.8,286046995.3,Y
1524204935.6,286046999.6,P
1524204955.4,286046997.3,P
1524204975.3,286046995.2,P
1524204995.1,286046995.0,N
1524205015.8,286046995.2,N
1524205035.7,286046997.9,N
1524205055.5,286046995.4,N
1524205075.4,286046998.0,N
1524205095.2,286046996.3,N
1524205115.0,286046995.9,N
1524205115.9,286046995.9,N
1524205135.8,286046996.1,N
1524205155.6,286046995.4,Y
1524205175.5,286046998.5,P
1524205195.3,286047000.0,N
1524205215.1,286046999.7,N
1524205235.9,286046999.7,N
1524205255.7,286047002.7,N
1524205275.5,286047002.5,N
1524205295.4,286047001.9,N
1524205315.2,286047002.1,N
1524205335.1,286046999.8,N
1524205336.0,286046999.8,N
1524205355.8,286047002.7,N
1524205375.6,286046999.9,N
1524205395.5,286047002.7,N
1524205415.3,286047002.1,N
1524205435.1,286047002.3,N
1524205455.9,286046999.7,N
1524205475.7,286047000.6,N
1524205495.6,286046999.8,N
1524205515.4,286047000.5,N
1524205535.2,286047000.1,N
1524205555.1,286047002.1,N
1524205556.0,286047002.1,N
1524205575.8,286047002.5,N
1524205595.7,286047000.1,N
1524205615.5,286047000.5,N
1524205635.3,286047002.5,N
1524205655.2,286047003.9,N
1524205675.9,286047001.8,N
1524205695.7,286047002.0,N
1524205715.6,286046999.8,N
1524205735.4,286046999.8,N
1524205755.3,286047001.4,N
1524205775.1,286047003.1,N
1524205776.0,286047003.1,N
1524205795.8,286047004.1,Y
1524205815.7,286047004.3,P
1524205835.5,286047003.7,N
1524205855.4,286047002.7,N
1524205875.2,286047000.3,N
1524205895.0,286047000.4,N
1524205895.9,286047000.4,N
1524205915.8,286047000.6,N
1524205935.6,286047002.8,N
1524205955.4,286047002.4,N
1524205975.3,286047001.9,N
1524205995.1,286047001.3,N
1524206015.9,286047002.6,N
1524206035.7,286047004.4,Y
1524206055.5,286047000.3,P
1524206075.4,286046998.7,N
1524206095.2,286046998.2,N
1524206115.1,286047001.1,N
1524206116.0,286047001.1,N
1524206135.8,286046997.2,N
1524206155.6,286046999.5,N
1524206175.5,286046997.1,N
1524206195.3,286046999.1,N
1524206215.1,286046999.0,N
1524206235.9,286046998.8,N
1524206255.7,286046999.3,N
1524206275.6,286046996.5,N
1524206295.4,286046996.7,N
1524206315.2,286046996.8,N
1524206335.1,286046999.0,N
1524206336.0,286046999.0,N
1524206355.8,286046999.3,N
1524206375.6,286047001.0,N
1524206395.5,286047000.3,N
1524206415.3,286047002.8,N
1524206435.2,286047000.0,N
1524206455.9,286047000.4,N
1524206475.7,286047002.8,N
1524206495.6,286047000.3,N
1524206515.4,286047002.8,N
1524206535.2,286047001.1,N
1524206555.1,286046999.1,N
1524206556.0,286046999.1,N
1524206575.8,286046998.2,N
1524206595.7,286047000.4,N
1524206615.5,286047000.6,N
1524206635.3,286047000.0,N
1524206655.2,286047002.4,N
1524206675.0,286047000.1,N
1524206675.9,286047000.1,N
1524206695.8,286047002.2,N
1524206715.6,286046998.3,N
1524206735.4,286046998.8,N
1524206755.3,286046998.2,N
1524206775.1,286047001.0,N
1524206795.8,286047002.8,N
1524206815.7,286047001.1,N
1524206835.5,286046998.6,N
1524206855.4,286046999.6,N
1524206875.2,286046998.4,N
1524206895.0,286047000.5,N
1524206895.9,286047000.5,N
1524206915.8,286047000.7,N
1524206935.6,286047000.5,N
1524206955.4,286046998.6,N
1524206975.3,286046998.2,N
1524206995.1,286047001.0,N
1524207015.9,286047002.6,N
1524207035.7,286047001.2,N
1524207055.5,286047000.8,N
1524207075.4,286047000.3,N
1524207095.2,286047000.6,N
1524207115.0,286046999.7,N
1524207115.9,286046999.7,N
1524207135.8,286047001.9,N
1524207155.6,286047002.7,N
1524207175.5,286047001.8,N
1524207195.3,286047001.5,N
1524207215.1,286046999.7,N
1524207235.9,286047001.2,N
1524207255.7,286046998.2,N
1524207275.5,286046999.9,N
1524207295.4,286046999.7,N
1524207315.2,286047001.4,N
1524207335.1,286046999.8,N
1524207336.0,286046999.8,N
1524207355.8,286047000.1,N
1524207375.6,286047000.8,N
1524207395.5,286047000.9,N
1524207415.3,286046999.8,N
1524207435.2,286047002.6,N
1524207455.9,286046999.9,N
1524207475.7,286046998.4,N
1524207495.6,286047000.6,N
1524207515.4,286047001.0,N
1524207535.2,286047002.5,N
1524207555.1,286047002.5,N
1524207556.0,286047002.5,N
1524207575.8,286047002.5,N
1524207595.7,286047002.7,N
